Погода в Навабгандже

Бангладеш     24°35′11″N   88°16′11″E
темп.,
°C
ветер,
м/с
пор.,
м/с
влажн.,
%
обл.,
%
осадки,
мм/ч
давл.,
гПа
погр.,
м
8 мая, сб
сб800:00+26ю366999 0.0 1010229
03:00+26ю247499 0.0 1009138
06:00+25вюв22714 0.4 100951
09:00+30ююв44485 0.0 1011787
12:00+34ююв32370 0.0 10091429
15:00+36ююз23320 0.0 10052095
18:00+27юз5570100 2.6 1005158
21:00+27с116159 3.9 100765
9 мая, вс
вс900:00+28в356783 4.6 1007195
03:00+27юз24741 0.0 1007172
06:00+26ююв23690 0.0 1007123
09:00+30ююв23585 0.0 1009838
12:00+35ююв43400 0.0 10071458
15:00+37ю23320 0.0 10032038
18:00+29юв1252100 2.6 100282
21:00+29с115311 0.0 100429
10 мая, пн
пн1000:00+28юв346873 0.4 1005242
03:00+27ююв247412 0.0 1004211
06:00+27ю488421 0.0 1004372
09:00+32ю44525 0.0 1006777
12:00+36ю33380 0.0 10041740
15:00+38з13290 0.0 10002180
18:00+34ссз34404 0.1 999262
21:00+30вюв595999 0.0 1002478
11 мая, вт
вт1100:00+29ююз6115596 0.1 1004494
03:00+27ююв48614 0.1 1003379
06:00+26вюв5672100 1.2 1003265
09:00+31юв45560 0.0 1006959
12:00+36ююв45423 0.0 10041964
15:00+38ююв443332 0.0 9992459
18:00+26з1657100 7.3 1001219
21:00+26вюв34676 2.9 1003282
12 мая, ср
ср1200:00+25вюв24685 2.9 1005339
03:00+25всв237129 0.2 1005228
06:00+24вюв611835 0.2 1005417
09:00+29вюв56575 0.1 1006745
12:00+33юв44465 0.1 10051525
15:00+35ююв33405 0.0 10011942
18:00+34ююв224291 0.3 10001286
21:00+28ююв686975 1.1 1003616